Location: Caltech
(34.1382°N, 118.1253°W)
Time: 10:50:37
(UTC-07:00)

SO-50 - Visible Passes

Search period start: 25 June 2016 00:00
Search period end: 05 July 2016 00:00
Orbit: 597 x 692 km, 64.6° (Epoch: 24 June)

Date Brightness Start Highest point End Pass type
(mag) Time Alt. Az. Time Alt. Az. Time Alt. Az.
25 Jun ? 00:46:17 10° NNE 00:47:42 11° NE 00:49:07 10° ENE visible
25 Jun ? 02:24:11 10° NNW 02:26:46 33° NNW 02:26:46 33° NNW visible
26 Jun ? 01:09:48 10° N 01:13:08 25° NE 01:13:08 25° NE visible
26 Jun ? 02:50:09 10° NW 02:50:44 13° WNW 02:50:44 13° WNW visible
27 Jun ? 01:34:44 10° NNW 01:37:13 30° NNW 01:37:13 30° NNW visible
28 Jun ? 00:20:50 10° N 00:23:47 18° NE 00:23:47 18° NE visible
28 Jun ? 02:00:20 10° NW 02:01:25 16° NW 02:01:25 16° NW visible
29 Jun ? 00:45:24 10° NNW 00:48:03 29° N 00:48:03 29° N visible
29 Jun ? 23:32:14 10° NNE 23:34:19 13° NE 23:34:46 13° NE visible
30 Jun ? 01:10:43 10° NW 01:12:24 22° NW 01:12:24 22° NW visible
30 Jun ? 23:56:11 10° N 23:59:10 26° NNE 23:59:10 26° NNE visible
02 Jul ? 00:21:13 10° NNW 00:23:37 30° NNW 00:23:37 30° NNW visible
02 Jul ? 23:07:08 10° N 23:10:29 20° NE 23:10:29 20° NE visible
03 Jul ? 00:46:57 10° NW 00:48:07 17° NW 00:48:07 17° NW visible
03 Jul ? 23:31:50 10° NNW 23:35:02 37° N 23:35:02 37° N visible
04 Jul ? 22:18:21 10° NNE 22:20:55 14° NE 22:22:00 13° ENE visible
